(432) Pythia
ephemeris date magn radius delta ra dec elong phase
Today13 May 202514.42.682 AU3.679 AU03h50m+15°57'8.0°3.0°
Opposition10 Jan 202612.62.660 AU1.681 AU07h35m+28°57'172.7°2.7°
(432) Pythia - 2025-05-13
astro.vanbuitenen.nl


 
-1 year
-1 month
-1 day
Now
+1 day
+1 month
+1 year

The interactive orbit chart above shows the body's path through the solar system and its position at the given date. Green and blue lines are shown perpendicular to the ecliptic plane: Green if the path is above the ecliptic plane, blue if it is below. (Left-click and drag to rotate the view; Right-click and drag to move the view; Use scroll wheel to zoom in our out.)

The orbital elements of Pythia are:

            e (Eccentricity)                : 0.1452595
            a (Semimajor axis)              : 2.3697538
            i (Inclination)                 : 12.11874
            Ω (Longitude of ascending node) : 88.72468
            ω (Argument of perihelion)      : 173.89543
            M (Mean anomaly)                : 149.46728
            Epoch                           : 2025 May 05

            L (Longitude of perihelion)     : 82.75516
            B (Latitude of perihelion)      : 1.27927
            P (Orbital period in years)     : 3.65            
        

The light curve chart below shows the estimated development of the minor planet's magnitude.


The all-sky chart below shows the path of the minor planet over the same period as the light curve. The current position is marked yellow.





The following chart shows the path of the minor planet in the next few days. The field of view is optimized for (~10x50) binoculars and finderscopes. A more printer-friendly version of the same chart can be found below.




Ephemerides:
Date       Time       RA (2000)    DEC (2000)    delta   radius  elong  phase   PA    magn
2025-05-13 00:00 UT   03 50 45.6   +15 57 03     3.679    2.682    8.0    3.0   108   14.4 
2025-05-13 06:58 UT   03 51 14.4   +15 59 05     3.680    2.682    7.8    2.9   109   14.4 
2025-05-14 00:00 UT   03 52 24.7   +16 04 03     3.681    2.683    7.5    2.8   110   14.4 
2025-05-15 00:00 UT   03 54 03.9   +16 10 60     3.684    2.683    7.0    2.6   113   14.3 
2025-05-16 00:00 UT   03 55 43.2   +16 17 52     3.686    2.684    6.5    2.5   116   14.3 
2025-05-17 00:00 UT   03 57 22.6   +16 24 41     3.688    2.684    6.1    2.3   119   14.3 
2025-05-18 00:00 UT   03 59 02.2   +16 31 25     3.690    2.685    5.7    2.1   122   14.3 
2025-05-19 00:00 UT   04 00 41.8   +16 38 05     3.691    2.686    5.3    2.0   126   14.3 
2025-05-20 00:00 UT   04 02 21.6   +16 44 41     3.693    2.686    4.9    1.8   131   14.3 
2025-05-21 00:00 UT   04 04 01.5   +16 51 13     3.694    2.687    4.5    1.7   136   14.3 
2025-05-22 00:00 UT   04 05 41.4   +16 57 41     3.696    2.687    4.3    1.6   143   14.3 
2025-05-23 00:00 UT   04 07 21.5   +17 04 04     3.697    2.688    4.0    1.5   150   14.3 
2025-05-24 00:00 UT   04 09 01.7   +17 10 24     3.698    2.688    3.8    1.4   157   14.3 
2025-05-25 00:00 UT   04 10 42.0   +17 16 39     3.699    2.689    3.7    1.4   166   14.3 
2025-05-26 00:00 UT   04 12 22.3   +17 22 49     3.699    2.689    3.7    1.4   174   14.3 
2025-05-27 00:00 UT   04 14 02.8   +17 28 56     3.700    2.690    3.8    1.4   183   14.3 
2025-05-28 00:00 UT   04 15 43.3   +17 34 58     3.701    2.690    3.9    1.5   191   14.3 
2025-05-29 00:00 UT   04 17 23.9   +17 40 56     3.701    2.691    4.1    1.5   199   14.3 
2025-05-30 00:00 UT   04 19 04.6   +17 46 50     3.701    2.692    4.4    1.6   205   14.3 
2025-05-31 00:00 UT   04 20 45.3   +17 52 40     3.701    2.692    4.7    1.8   211   14.3 
2025-06-01 00:00 UT   04 22 26.1   +17 58 25     3.701    2.693    5.0    1.9   216   14.3 
2025-06-02 00:00 UT   04 24 06.9   +18 04 06     3.701    2.693    5.4    2.0   221   14.3 


    Terminology:
            
    delta:  distance between minor planet and earth in AU
    radius: distance between minor planet and sun in AU
    magn:   magnitude (brightness) estimate    
    ra:     right ascension in hours (24h = 360deg)
    dec:    declination in degrees
    elong:  elongation in degrees (angle sun-earth-minor planet)    
    phase:  phase angle in degrees (angle sun-minor planet-earth)        
    AU:     Astronomical Unit (mean distance between earth and sun: 149597870.7 km
    

Orbital elements provided by the MPC (Minor Planet Center).
Calculations by a modified version of AAPlus, a C# implementation of the AA+ project by PJ Naughter from the algorithms presented in the book "Astronomical Algorithms" by Jean Meeus.
NGC2000 dso catalog and star labels from VizieR as provided by the Strasbourg astronomical Data Center.
Tycho2 catalog from the ESO archive.